Volver al catálogo

STARLINK-2408

ActivoComunicacionesVLEO
NORAD 47823·PAYLOAD·🇺🇸 United States

Lanzado Mar 11, 2021 desde Cape Canaveral Space Force Station

Loading…

Próximos Pases (próximas 24 horas)

TLE

ActualizadoSource: CelesTrak SupGP

Época: Sep 15, 2026, 01:30 UTC

1 47823C 21018AN  26258.06298611  .00035252  00000+0  11329-2 0  2584
2 47823  53.1568  96.7600 0001002  93.9560  11.3223 15.31705875    12

Sigue STARLINK-2408 en tiempo real con AllMySat

Download on the App Store